Location: Aciu?a
(46.2833°N, 22.4500°E)
Time: 12:23:54
(UTC+00:00)

Cosmos 1455 - Pass Details

Date: 29 May 2022
Orbit: 492 x 514 km, 82.5° (Epoch: 03 July)

Event Time Altitude Azimuth Distance (km) Brightness Sun altitude
Rises 01:27:16 0° 328° (NNW) 2,584 6.0 -10.9°
Reaches altitude 10° 01:31:09 10° 286° (WNW) 1,693 4.6 -10.4°
Maximum altitude 01:31:47 10° 277° (W) 1,669 4.4 -10.4°
Drops below altitude 10° 01:32:25 10° 267° (W) 1,691 4.4 -10.3°
Enters shadow 01:32:52 - 260° (W) 1,733 4.4 -10.2°
